Other Public Products
Issued by NWS Grand Forks, ND

Home | Current Version | Previous Version | Graphics & Text | Print | Product List | Glossary On
Versions: 1 2 3 4 5 6 7 8 9 10 11 12 13 14 15 16 17 18 19 20 21 22 23 24 25 26 27 28 29 30 31 32 33 34 35 36 37 38 39 40 41 42 43 44 45 46 47 48 49 50
000
FPUS83 KFGF 240331
OPUFGF
PRAIRIE TO PINES WEATHER ROUNDUP
NATIONAL WEATHER SERVICE EASTERN NORTH DAKOTA/GRAND FORKS ND
1000 PM CDT WED APR 23 2014

 **SATELLITE DATA USED TO AUGMENT SKY COVER AT AUTOMATED STATIONS**
 *****  WEATHER ACROSS EASTERN NORTH DAKOTA  *****

CITY           SKY/WX    TMP DP  RH WIND       PRES   REMARKS
GRAND FORKS    LGT RAIN  40  37  89 SE26G37   29.84S
GRAND FORKS AF LGT RAIN  39  39 100 SE16G23   29.83S
GRAND CITY NWS   N/A     37 N/A N/A SE18        N/A
BUXTON           N/A     38  38  99 E18         N/A
DEVILS LAKE    CLOUDY    37  34  87 SE14      29.75R
FARGO          CLOUDY    42  38  85 SE17G28   29.81F
WAHPETON ARPT  CLOUDY    41  34  75 SE18G25   29.80F
$$

 *****  WEATHER ACROSS CENTRAL AND WESTERN NORTH DAKOTA  *****

CITY           SKY/WX    TMP DP  RH WIND       PRES   REMARKS
JAMESTOWN      CLOUDY    40  38  93 SE17      29.74R
BISMARCK       PTCLDY    47  32  56 N5        29.70R
MINOT          CLOUDY    45  42  89 SW5       29.64R
MINOT AFB      FOG       41  41 100 SE3       29.64R VSB 1/2
GARRISON         N/A     38  36  92 S3        29.66R
WILLISTON      MOCLDY    47  38  71 CALM      29.62R
DICKINSON      CLOUDY    44  26  49 NW7       29.67R
HETTINGER      CLOUDY    41  29  62 W7        29.72R
$$

 *****  OTHER OBSERVATIONS NORTHEAST NORTH DAKOTA  *****

CITY           SKY/WX    TMP DP  RH WIND       PRES   REMARKS
WALHALLA       MOCLDY    39  39 100 SE22G31   29.84S
LANGDON        CLOUDY    37  36  93 SE24      29.79R FOG
CAVALIER       LGT RAIN  39  36  87 SE14G25   29.85S
GRAFTON        CLOUDY    37  37 100 SE24      29.85S
CANDO          MIX PCPN  37  37 100 SE21G26   29.75S
FORT TOTTEN    NOT AVBL
ROLLA          CLOUDY    37  37 100 SE22      29.74R FOG
RUGBY          CLOUDY    39  39 100 SE18G28   29.69S FOG
 ***** THE ABOVE OBSERVATIONS ARE NON NWS ARE NOT QUALITY
        CONTROLLED AND MAY MIS-REPORT RAIN FOR SNOW...
$$

 *****  OTHER OBSERVATIONS SOUTHEAST NORTH DAKOTA *****

CITY           SKY/WX    TMP DP  RH WIND       PRES   REMARKS
COOPERSTOWN    CLOUDY    37  37 100 SE24G30   29.76S
VALLEY CITY    CLOUDY    39  39 100 SE15G24   29.76S
OAKES          MOCLDY    39  39 100 E13       29.72S
GWINNER        CLOUDY    41  41 100 SE20G30   29.75R
BUFFALO        NOT AVBL
WYNDMERE       NOT AVBL
 ***** THE ABOVE OBSERVATIONS ARE NON NWS ARE NOT QUALITY
       CONTROLLED AND MAY MIS-REPORT RAIN FOR SNOW...
$$

  *****  WEATHER ACROSS NORTHERN MINNESOTA  *****

CITY           SKY/WX    TMP DP  RH WIND       PRES   REMARKS
FLAG ISLAND    CLOUDY    43  27  52 S7        29.93R
WARROAD        MIX PCPN  41  37  87 S8        29.95R
ROSEAU         LGT RAIN  41  36  81 S9        29.95R
HALLOCK        LGT RAIN  39  37  93 SE20      29.88F
THF RVR FALLS  CLOUDY    36  32  87 SE17      29.91S
HALSTAD          N/A     39  37  94 SE18        N/A
FOSSTON        MIX PCPN  32  30  93 E10G17    29.90R WCI  24
BAUDETTE       CLOUDY    43  35  73 S13       29.95R
WASKISH        LGT RAIN  37  36  93 E8        29.96S
CROOKSTON      MIX PCPN  37  37 100 SE18G25   29.87F
$$
  *****  WEATHER ACROSS CENTRAL AND WEST MINNESOTA  *****

CITY           SKY/WX    TMP DP  RH WIND       PRES   REMARKS
BEMIDJI        LGT SNOW  32  32  99 SE10      29.93F WCI  24
PARK RAPIDS    LGT RAIN  35  34  96 SE12      29.91S
WADENA         LGT RAIN  37  36  93 E16G24    29.87S
DETROIT LAKES  RAIN      37  36  93 SE17      29.88R
MOORHEAD       LGT RAIN  43  41  93 SE16G24   29.82F
FERGUS FALLS   CLOUDY    41  34  75 SE18G26   29.80S
ELBOW LAKE     CLOUDY    40  35  82 SE21G32   29.81S
MORRIS MN      MOCLDY    41  36  81 SE23G29   29.80R
STAPLES        CLOUDY    37  36  93 SE10G18   29.88F
WHEATON        CLOUDY    43  39  87 E23G30    29.79F
$$
  *****  WEATHER ELSEWHERE ACROSS MINNESOTA  *****

CITY           SKY/WX    TMP DP  RH WIND       PRES   REMARKS
DULUTH         RAIN      38  29  70 E10G18    30.01S
INTRNTL FALLS  CLOUDY    45  25  45 SE7       29.96R
ELY            CLOUDY    39  21  48 SE5       30.01S
CLOQUET        LGT RAIN  36  32  87 NE5       30.02R
BRAINERD       LGT RAIN  42  35  76 SE9       29.95F
HIBBING        RAIN      38  32  79 S13G22    30.02R
ALEXANDRIA     CLOUDY    39  36  89 SE18G26   29.84F
SAINT CLOUD    CLOUDY    42  37  82 E9        29.92S
MINNEAPOLIS    CLOUDY    43  39  86 E15       29.92S
$$

  *****  WEATHER ACROSS SOUTH DAKOTA  *****

CITY           SKY/WX    TMP DP  RH WIND       PRES   REMARKS
SIOUX FALLS    CLOUDY    48  39  71 SE21G28   29.71R
BROOKINGS      NOT AVBL
WATERTOWN      MOCLDY    45  38  76 SE15G22   29.71R
HURON          MOCLDY    56  41  57 SE21G28   29.64R
SISSETON         N/A     41  38  89 SE18G26   29.74F
ABERDEEN       MOCLDY    46  40  79 E9        29.68R
MITCHELL       PTCLDY    57  43  59 SE26G32   29.62R
PIERRE         CLOUDY    53  37  54 NW15      29.69R
MOBRIDGE       CLOUDY    46  38  73 NE10      29.68R
RAPID CITY     MOCLDY    46  32  58 N13       29.77R
$$

  *****  SOME WEATHER IN NEARBY STATES *****

CITY           SKY/WX    TMP DP  RH WIND       PRES   REMARKS
GLASGOW MT     CLEAR     50  23  34 W18G26    29.63R
GREAT FALLS MT PTCLDY    38  28  67 SW15      29.75R
CHEYENNE WY    CLOUDY    45   7  21 NW20G40   29.86R
SCOTTSBLUFF NE CLOUDY    56   9  15 W14       29.78R
OMAHA NE       CLOUDY    55  43  63 E9        29.66F
DES MOINES IA  CLOUDY    52  38  58 E14       29.79R
DAVENPORT IA   CLOUDY    48  40  73 SE12      29.98S
CHICAGO IL     CLOUDY    42  20  41 NE10      30.08F
EAU CLAIRE WI  LGT RAIN  42  39  89 E9        30.01R
LA CROSSE WI   CLOUDY    45  39  79 E14G22    29.98F
$$

  *****  SOME NATIONAL WEATHER *****

CITY           SKY/WX    TMP DP  RH WIND       PRES   REMARKS
LA GUARDIA NY  MOCLDY    46  30  53 NW20G30   29.81R
RALEIGH NC     CLEAR     59  31  34 NE7       29.97R
ATLANTA GA     CLEAR     61  37  41 NW5       29.95R
NEW ORLEANS LA PTCLDY    71  65  81 SW9       29.93R
OKLAHOMA CITY  LGT RAIN  73  60  63 CALM      29.77R
ALBUQUERQUE NM PTCLDY    61  15  16 NW16G24   29.89R
SALT LAKE CITY PTCLDY    48  18  30 S3        30.05S
LOS ANGELES CA PTCLDY    62  49  62 W6        29.92R
BOISE ID       CLOUDY    54  31  41 E9        29.95S
SEATTLE WA     LGT RAIN  49  46  90 E8        29.74F
$$

*** WEATHER ACROSS MANITOBA...SASKATCHEWAN AND ONTARIO ***
                ***ONTARIO***

CITY           SKY/WX    TMP DP  RH WIND       PRES   REMARKS
GERALDTON      PTCLDY    30  23  74 NE2       30.09R
THUNDER BAY    CLOUDY    36  28  75 E6        30.08S
SIOUX LOOKOUT  CLOUDY    46  21  36 SE5       29.99S
TORONTO        CLEAR     39  18  41 NW15      30.07R
BIG TROUT LK   MOCLDY    36  19  51 E7        30.09R
PICKLE LAKE    NOT AVBL
DRYDEN         CLOUDY    45  23  42 SE9       29.98R
KENORA         CLOUDY    45  23  42 SE8       29.95R
$$
                *** MANITOBA***

CITY           SKY/WX    TMP DP  RH WIND       PRES   REMARKS
BRANDON        LGT RAIN  37  37 100 SE20G28   29.78R
DAUPHIN        LGT RAIN  41  39  93 SE23G29   29.80S
ISLAND LAKE    CLEAR     39  30  70 NE10G17   30.08R
PILOT MOUND      N/A     36  36 100 SE22G28     N/A
THE PAS        CLOUDY    43  28  56 E18G32    29.91R
THOMPSON       PTCLDY    28  23  80 NE16      30.19R WCI  17
WINNIPEG       LGT RAIN  43  39  87 S15G23    29.91S
LYNN LAKE      CLEAR     27  21  80 E16G23    30.15R WCI  14
CHURCHILL      FLURRIES  19  16  86 N15       30.39R WCI   5
GILLAM         CLOUDY    25  19  80 NE17      30.28S WCI  11
$$
                ***SASKATCHEWAN***

CITY           SKY/WX    TMP DP  RH WIND       PRES   REMARKS
ESTEVAN        LGT RAIN  43  43 100 SW7       29.60R
KINDERSLEY     MOCLDY    41  36  81 W13G18    29.51R
LLOYDMINSTER   LGT RAIN  39  37  93 E16       29.49S FOG
PRINCE ALBERT  LGT RAIN  41  37  87 E26G38    29.65S
REGINA         LGT RAIN  43  43 100 SW5       29.54R
YORKTON        LGT RAIN  37  36  93 E23G32    29.67R



USA.gov is the U.S. government's official web portal to all federal, state and local government web resources and services.